Wetterdaten: Sonntag, 06.09.2015
Datum Zeit Temp. A. Feuchte A. Luftdruck Regen Wind Richtung Richtung Sonnenschein ET UV Solar Taupunkt Windchill Windben Empfang
06.09.2015 00:03 11,5 C 75 % 1016,4 hPa 0,0 l/m 2,9 km/h (1 Bft) W 275 0 min 0,000 mm 0,0 UV-I 0 W/m 7,2 C 11,5 C 7,9 km/h (2 Bft) 0,00 %
06.09.2015 00:08 11,4 C 75 % 1016,3 hPa 0,0 l/m 0,0 km/h (0 Bft) N 355 0 min 0,000 mm 0,0 UV-I 0 W/m 7,1 C 11,4 C 0,0 km/h (0 Bft) 0,00 %
06.09.2015 00:13 11,4 C 76 % 1016,3 hPa 0,0 l/m 4,0 km/h (1 Bft) SW 221 0 min 0,000 mm 0,0 UV-I 0 W/m 7,3 C 11,4 C 7,9 km/h (2 Bft) 0,00 %
06.09.2015 00:18 11,4 C 75 % 1016,3 hPa 0,0 l/m 0,4 km/h (0 Bft) O-NO 70 0 min 0,000 mm 0,0 UV-I 0 W/m 7,1 C 11,4 C 4,0 km/h (1 Bft) 0,00 %
06.09.2015 00:23 11,4 C 75 % 1016,4 hPa 0,0 l/m 1,4 km/h (1 Bft) S-SW 207 0 min 0,000 mm 0,0 UV-I 0 W/m 7,1 C 11,4 C 4,0 km/h (1 Bft) 0,00 %
06.09.2015 00:28 11,4 C 75 % 1016,5 hPa 0,0 l/m 4,0 km/h (1 Bft) SW 223 0 min 0,000 mm 0,0 UV-I 0 W/m 7,1 C 11,4 C 7,9 km/h (2 Bft) 0,00 %
06.09.2015 00:33 11,5 C 75 % 1016,7 hPa 0,0 l/m 0,0 km/h (0 Bft) N 352 0 min 0,000 mm 0,0 UV-I 0 W/m 7,2 C 11,5 C 0,0 km/h (0 Bft) 0,00 %
06.09.2015 00:38 11,5 C 76 % 1016,6 hPa 0,0 l/m 0,4 km/h (0 Bft) NO 36 0 min 0,000 mm 0,0 UV-I 0 W/m 7,4 C 11,5 C 4,0 km/h (1 Bft) 0,00 %
06.09.2015 00:43 11,5 C 76 % 1016,6 hPa 0,0 l/m 6,8 km/h (2 Bft) W-SW 256 0 min 0,000 mm 0,0 UV-I 0 W/m 7,4 C 11,2 C 11,9 km/h (2 Bft) 0,00 %
06.09.2015 00:48 11,5 C 75 % 1016,6 hPa 0,0 l/m 5,4 km/h (1 Bft) NO 45 0 min 0,000 mm 0,0 UV-I 0 W/m 7,2 C 11,5 C 7,9 km/h (2 Bft) 0,00 %
06.09.2015 00:53 11,5 C 76 % 1016,7 hPa 0,0 l/m 0,4 km/h (0 Bft) N 357 0 min 0,000 mm 0,0 UV-I 0 W/m 7,4 C 11,5 C 4,0 km/h (1 Bft) 0,00 %
06.09.2015 00:58 11,5 C 76 % 1016,7 hPa 0,0 l/m 1,4 km/h (1 Bft) N-NW 327 0 min 0,000 mm 0,0 UV-I 0 W/m 7,4 C 11,5 C 4,0 km/h (1 Bft) 0,00 %
06.09.2015 01:03 11,5 C 76 % 1016,6 hPa 0,0 l/m 9,4 km/h (2 Bft) W-SW 255 0 min 0,000 mm 0,0 UV-I 0 W/m 7,4 C 9,6 C 11,9 km/h (2 Bft) 0,00 %
06.09.2015 01:08 11,5 C 77 % 1016,6 hPa 0,0 l/m 10,4 km/h (2 Bft) W-SW 251 0 min 0,000 mm 0,0 UV-I 0 W/m 7,6 C 9,0 C 15,8 km/h (3 Bft) 0,00 %
06.09.2015 01:13 11,5 C 77 % 1016,6 hPa 0,0 l/m 0,0 km/h (0 Bft) O-NO 67 0 min 0,000 mm 0,0 UV-I 0 W/m 7,6 C 11,5 C 0,0 km/h (0 Bft) 0,00 %
06.09.2015 01:18 11,4 C 77 % 1016,7 hPa 0,0 l/m 0,0 km/h (0 Bft) O-NO 57 0 min 0,000 mm 0,0 UV-I 0 W/m 7,5 C 11,4 C 0,0 km/h (0 Bft) 0,00 %
06.09.2015 01:23 11,4 C 77 % 1016,8 hPa 0,0 l/m 5,4 km/h (1 Bft) W-SW 256 0 min 0,000 mm 0,0 UV-I 0 W/m 7,5 C 11,4 C 7,9 km/h (2 Bft) 0,00 %
06.09.2015 01:28 11,4 C 77 % 1016,5 hPa 0,0 l/m 0,0 km/h (0 Bft) NO 47 0 min 0,000 mm 0,0 UV-I 0 W/m 7,5 C 11,4 C 0,0 km/h (0 Bft) 0,00 %
06.09.2015 01:33 11,5 C 78 % 1016,6 hPa 0,0 l/m 0,7 km/h (0 Bft) O 79 0 min 0,000 mm 0,0 UV-I 0 W/m 7,8 C 11,5 C 4,0 km/h (1 Bft) 0,00 %
06.09.2015 01:38 11,5 C 77 % 1016,6 hPa 0,0 l/m 1,4 km/h (1 Bft) N-NO 27 0 min 0,000 mm 0,0 UV-I 0 W/m 7,6 C 11,5 C 4,0 km/h (1 Bft) 0,00 %
06.09.2015 01:43 11,5 C 76 % 1016,7 hPa 0,0 l/m 0,0 km/h (0 Bft) N-NW 331 0 min 0,000 mm 0,0 UV-I 0 W/m 7,4 C 11,5 C 0,0 km/h (0 Bft) 0,00 %
06.09.2015 01:48 11,5 C 76 % 1016,7 hPa 0,0 l/m 0,7 km/h (0 Bft) O-NO 57 0 min 0,000 mm 0,0 UV-I 0 W/m 7,4 C 11,5 C 4,0 km/h (1 Bft) 0,00 %
06.09.2015 01:53 11,5 C 76 % 1016,6 hPa 0,0 l/m 0,0 km/h (0 Bft) N-NW 347 0 min 0,000 mm 0,0 UV-I 0 W/m 7,4 C 11,5 C 0,0 km/h (0 Bft) 0,00 %
06.09.2015 01:58 11,5 C 76 % 1016,6 hPa 0,0 l/m 0,0 km/h (0 Bft) NO 41 0 min 0,000 mm 0,0 UV-I 0 W/m 7,4 C 11,5 C 0,0 km/h (0 Bft) 0,00 %
06.09.2015 02:03 11,5 C 77 % 1016,6 hPa 0,0 l/m 2,9 km/h (1 Bft) N 352 0 min 0,000 mm 0,0 UV-I 0 W/m 7,6 C 11,5 C 7,9 km/h (2 Bft) 0,00 %
06.09.2015 02:08 11,5 C 77 % 1016,6 hPa 0,0 l/m 0,0 km/h (0 Bft) N-NO 13 0 min 0,000 mm 0,0 UV-I 0 W/m 7,6 C 11,5 C 0,0 km/h (0 Bft) 0,00 %
06.09.2015 02:13 11,5 C 77 % 1016,6 hPa 0,0 l/m 1,8 km/h (1 Bft) NW 324 0 min 0,000 mm 0,0 UV-I 0 W/m 7,6 C 11,5 C 4,0 km/h (1 Bft) 0,00 %
06.09.2015 02:18 11,5 C 77 % 1016,7 hPa 0,0 l/m 4,0 km/h (1 Bft) N-NW 340 0 min 0,000 mm 0,0 UV-I 0 W/m 7,6 C 11,5 C 7,9 km/h (2 Bft) 0,00 %
06.09.2015 02:23 11,4 C 77 % 1016,6 hPa 0,0 l/m 1,4 km/h (1 Bft) O 93 0 min 0,000 mm 0,0 UV-I 0 W/m 7,5 C 11,4 C 4,0 km/h (1 Bft) 0,00 %
06.09.2015 02:28 11,4 C 77 % 1016,6 hPa 0,0 l/m 3,2 km/h (1 Bft) NO 52 0 min 0,000 mm 0,0 UV-I 0 W/m 7,5 C 11,4 C 7,9 km/h (2 Bft) 0,00 %
06.09.2015 02:33 11,3 C 78 % 1016,6 hPa 0,0 l/m 0,4 km/h (0 Bft) W-SW 256 0 min 0,000 mm 0,0 UV-I 0 W/m 7,6 C 11,3 C 4,0 km/h (1 Bft) 0,00 %
06.09.2015 02:38 11,3 C 78 % 1016,7 hPa 0,0 l/m 0,0 km/h (0 Bft) N-NW 347 0 min 0,000 mm 0,0 UV-I 0 W/m 7,6 C 11,3 C 0,0 km/h (0 Bft) 0,00 %
06.09.2015 02:43 11,2 C 78 % 1016,7 hPa 0,0 l/m 1,4 km/h (1 Bft) N 352 0 min 0,000 mm 0,0 UV-I 0 W/m 7,5 C 11,2 C 4,0 km/h (1 Bft) 0,00 %
06.09.2015 02:48 11,2 C 78 % 1016,7 hPa 0,0 l/m 4,3 km/h (1 Bft) W-SW 256 0 min 0,000 mm 0,0 UV-I 0 W/m 7,5 C 11,2 C 7,9 km/h (2 Bft) 0,00 %
06.09.2015 02:53 11,2 C 78 % 1016,5 hPa 0,0 l/m 1,8 km/h (1 Bft) O 96 0 min 0,000 mm 0,0 UV-I 0 W/m 7,5 C 11,2 C 4,0 km/h (1 Bft) 0,00 %
06.09.2015 02:58 11,2 C 78 % 1016,7 hPa 0,0 l/m 0,0 km/h (0 Bft) NO 45 0 min 0,000 mm 0,0 UV-I 0 W/m 7,5 C 11,2 C 0,0 km/h (0 Bft) 0,00 %
06.09.2015 03:03 11,3 C 78 % 1016,9 hPa 0,0 l/m 0,4 km/h (0 Bft) N-NW 347 0 min 0,000 mm 0,0 UV-I 0 W/m 7,6 C 11,3 C 4,0 km/h (1 Bft) 0,00 %
06.09.2015 03:08 11,3 C 78 % 1016,6 hPa 0,0 l/m 7,2 km/h (2 Bft) SW 230 0 min 0,000 mm 0,0 UV-I 0 W/m 7,6 C 10,8 C 11,9 km/h (2 Bft) 0,00 %
06.09.2015 03:13 11,3 C 78 % 1016,7 hPa 0,0 l/m 4,3 km/h (1 Bft) W-SW 251 0 min 0,000 mm 0,0 UV-I 0 W/m 7,6 C 11,3 C 7,9 km/h (2 Bft) 0,00 %
06.09.2015 03:18 11,2 C 79 % 1016,6 hPa 0,0 l/m 0,7 km/h (0 Bft) O-NO 62 0 min 0,000 mm 0,0 UV-I 0 W/m 7,7 C 11,2 C 4,0 km/h (1 Bft) 0,00 %
06.09.2015 03:23 11,2 C 79 % 1016,8 hPa 0,0 l/m 0,4 km/h (0 Bft) N-NW 338 0 min 0,000 mm 0,0 UV-I 0 W/m 7,7 C 11,2 C 4,0 km/h (1 Bft) 0,00 %
06.09.2015 03:28 11,1 C 80 % 1016,7 hPa 0,0 l/m 0,7 km/h (0 Bft) N-NW 345 0 min 0,000 mm 0,0 UV-I 0 W/m 7,8 C 11,1 C 4,0 km/h (1 Bft) 0,00 %
06.09.2015 03:33 11,0 C 80 % 1016,8 hPa 0,0 l/m 3,2 km/h (1 Bft) NW 309 0 min 0,000 mm 0,0 UV-I 0 W/m 7,7 C 11,0 C 4,0 km/h (1 Bft) 0,00 %
06.09.2015 03:38 11,0 C 82 % 1016,7 hPa 0,0 l/m 4,7 km/h (1 Bft) NW 305 0 min 0,000 mm 0,0 UV-I 0 W/m 8,0 C 11,0 C 7,9 km/h (2 Bft) 0,00 %
06.09.2015 03:43 10,9 C 81 % 1016,8 hPa 0,0 l/m 0,7 km/h (0 Bft) W-SW 251 0 min 0,000 mm 0,0 UV-I 0 W/m 7,8 C 10,9 C 4,0 km/h (1 Bft) 0,00 %
06.09.2015 03:48 10,9 C 81 % 1016,9 hPa 0,0 l/m 0,7 km/h (0 Bft) N-NW 339 0 min 0,000 mm 0,0 UV-I 0 W/m 7,8 C 10,9 C 4,0 km/h (1 Bft) 0,00 %
06.09.2015 03:53 10,9 C 82 % 1016,9 hPa 0,0 l/m 0,4 km/h (0 Bft) N-NO 17 0 min 0,000 mm 0,0 UV-I 0 W/m 7,9 C 10,9 C 4,0 km/h (1 Bft) 0,00 %
06.09.2015 03:58 10,8 C 82 % 1016,9 hPa 0,0 l/m 4,3 km/h (1 Bft) W-NW 289 0 min 0,000 mm 0,0 UV-I 0 W/m 7,9 C 10,8 C 7,9 km/h (2 Bft) 0,00 %
06.09.2015 04:03 10,8 C 82 % 1016,9 hPa 0,0 l/m 1,4 km/h (1 Bft) W-NW 283 0 min 0,000 mm 0,0 UV-I 0 W/m 7,9 C 10,8 C 4,0 km/h (1 Bft) 0,00 %
06.09.2015 04:08 10,8 C 83 % 1017,0 hPa 0,0 l/m 1,8 km/h (1 Bft) W 278 0 min 0,000 mm 0,0 UV-I 0 W/m 8,0 C 10,8 C 4,0 km/h (1 Bft) 0,00 %
06.09.2015 04:13 10,7 C 83 % 1017,0 hPa 0,0 l/m 3,2 km/h (1 Bft) W-SW 256 0 min 0,000 mm 0,0 UV-I 0 W/m 7,9 C 10,7 C 4,0 km/h (1 Bft) 0,00 %
06.09.2015 04:18 10,6 C 84 % 1017,2 hPa 0,3 l/m 2,9 km/h (1 Bft) W-SW 256 0 min 0,000 mm 0,0 UV-I 0 W/m 8,0 C 10,6 C 4,0 km/h (1 Bft) 0,00 %
06.09.2015 04:23 10,5 C 87 % 1017,1 hPa 0,3 l/m 7,9 km/h (2 Bft) W-SW 256 0 min 0,000 mm 0,0 UV-I 0 W/m 8,4 C 9,4 C 11,9 km/h (2 Bft) 0,00 %
06.09.2015 04:28 10,3 C 89 % 1017,0 hPa 0,0 l/m 1,4 km/h (1 Bft) NW 313 0 min 0,000 mm 0,0 UV-I 0 W/m 8,6 C 10,3 C 4,0 km/h (1 Bft) 0,00 %
06.09.2015 04:33 10,0 C 90 % 1017,0 hPa 0,0 l/m 1,4 km/h (1 Bft) N 354 0 min 0,000 mm 0,0 UV-I 0 W/m 8,4 C 10,0 C 4,0 km/h (1 Bft) 0,00 %
06.09.2015 04:38 9,8 C 90 % 1016,9 hPa 0,0 l/m 0,7 km/h (0 Bft) NW 317 0 min 0,000 mm 0,0 UV-I 0 W/m 8,2 C 9,8 C 4,0 km/h (1 Bft) 0,00 %
06.09.2015 04:43 9,7 C 90 % 1016,9 hPa 0,0 l/m 5,8 km/h (2 Bft) W-SW 256 0 min 0,000 mm 0,0 UV-I 0 W/m 8,1 C 9,7 C 7,9 km/h (2 Bft) 0,00 %
06.09.2015 04:48 9,6 C 91 % 1016,9 hPa 0,0 l/m 2,2 km/h (1 Bft) W-NW 300 0 min 0,000 mm 0,0 UV-I 0 W/m 8,2 C 9,6 C 4,0 km/h (1 Bft) 0,00 %
06.09.2015 04:53 9,6 C 91 % 1017,0 hPa 0,0 l/m 0,4 km/h (0 Bft) O-NO 70 0 min 0,000 mm 0,0 UV-I 0 W/m 8,2 C 9,6 C 4,0 km/h (1 Bft) 0,00 %
06.09.2015 04:58 9,6 C 92 % 1017,0 hPa 0,0 l/m 0,4 km/h (0 Bft) N 357 0 min 0,000 mm 0,0 UV-I 0 W/m 8,4 C 9,6 C 4,0 km/h (1 Bft) 0,00 %
06.09.2015 05:03 9,6 C 92 % 1016,8 hPa 0,3 l/m 0,0 km/h (0 Bft) N 354 0 min 0,000 mm 0,0 UV-I 0 W/m 8,4 C 9,6 C 0,0 km/h (0 Bft) 0,00 %
06.09.2015 05:08 9,6 C 92 % 1016,7 hPa 0,0 l/m 2,2 km/h (1 Bft) O 84 0 min 0,000 mm 0,0 UV-I 0 W/m 8,4 C 9,6 C 4,0 km/h (1 Bft) 0,00 %
06.09.2015 05:14 9,6 C 92 % 1016,7 hPa 0,0 l/m 1,8 km/h (1 Bft) W-SW 256 0 min 0,000 mm 0,0 UV-I 0 W/m 8,4 C 9,6 C 4,0 km/h (1 Bft) 0,00 %
06.09.2015 05:19 9,6 C 93 % 1016,9 hPa 0,0 l/m 0,7 km/h (0 Bft) O-NO 61 0 min 0,000 mm 0,0 UV-I 0 W/m 8,5 C 9,6 C 4,0 km/h (1 Bft) 0,00 %
06.09.2015 05:24 9,6 C 93 % 1016,9 hPa 0,0 l/m 0,4 km/h (0 Bft) NO 50 0 min 0,000 mm 0,0 UV-I 0 W/m 8,5 C 9,6 C 4,0 km/h (1 Bft) 0,00 %
06.09.2015 05:29 9,7 C 93 % 1017,0 hPa 0,0 l/m 1,4 km/h (1 Bft) W-SW 253 0 min 0,000 mm 0,0 UV-I 0 W/m 8,6 C 9,7 C 4,0 km/h (1 Bft) 0,00 %
06.09.2015 05:34 9,7 C 92 % 1016,8 hPa 0,0 l/m 0,7 km/h (0 Bft) N-NW 347 0 min 0,000 mm 0,0 UV-I 0 W/m 8,5 C 9,7 C 4,0 km/h (1 Bft) 0,00 %
06.09.2015 05:39 9,7 C 92 % 1016,7 hPa 0,0 l/m 2,2 km/h (1 Bft) N-NW 328 0 min 0,000 mm 0,0 UV-I 0 W/m 8,5 C 9,7 C 4,0 km/h (1 Bft) 0,00 %
06.09.2015 05:44 9,7 C 93 % 1016,5 hPa 0,0 l/m 7,9 km/h (2 Bft) W-SW 251 0 min 0,000 mm 0,0 UV-I 0 W/m 8,6 C 8,6 C 11,9 km/h (2 Bft) 0,00 %
06.09.2015 05:49 9,7 C 93 % 1017,0 hPa 0,0 l/m 2,9 km/h (1 Bft) W-SW 250 0 min 0,000 mm 0,0 UV-I 0 W/m 8,6 C 9,7 C 4,0 km/h (1 Bft) 0,00 %
06.09.2015 05:54 9,6 C 93 % 1016,9 hPa 0,0 l/m 0,7 km/h (0 Bft) O-NO 60 0 min 0,000 mm 0,0 UV-I 0 W/m 8,5 C 9,6 C 4,0 km/h (1 Bft) 0,00 %
06.09.2015 05:59 9,6 C 93 % 1016,8 hPa 0,0 l/m 0,4 km/h (0 Bft) N 354 0 min 0,000 mm 0,0 UV-I 0 W/m 8,5 C 9,6 C 4,0 km/h (1 Bft) 0,00 %
06.09.2015 06:04 9,6 C 93 % 1016,9 hPa 0,0 l/m 5,8 km/h (2 Bft) W-SW 256 0 min 0,000 mm 0,0 UV-I 0 W/m 8,5 C 9,6 C 11,9 km/h (2 Bft) 0,00 %
06.09.2015 06:09 9,6 C 94 % 1016,9 hPa 0,0 l/m 0,4 km/h (0 Bft) O 99 0 min 0,000 mm 0,0 UV-I 0 W/m 8,7 C 9,6 C 4,0 km/h (1 Bft) 0,00 %
06.09.2015 06:14 9,6 C 94 % 1016,9 hPa 0,0 l/m 2,2 km/h (1 Bft) O-SO 105 0 min 0,000 mm 0,0 UV-I 0 W/m 8,7 C 9,6 C 4,0 km/h (1 Bft) 0,00 %
06.09.2015 06:19 9,6 C 94 % 1017,0 hPa 0,0 l/m 1,4 km/h (1 Bft) S 187 0 min 0,000 mm 0,0 UV-I 0 W/m 8,7 C 9,6 C 4,0 km/h (1 Bft) 0,00 %
06.09.2015 06:24 9,6 C 94 % 1017,0 hPa 0,0 l/m 0,4 km/h (0 Bft) NW 309 0 min 0,000 mm 0,0 UV-I 0 W/m 8,7 C 9,6 C 4,0 km/h (1 Bft) 0,00 %
06.09.2015 06:29 9,6 C 94 % 1016,8 hPa 0,0 l/m 0,0 km/h (0 Bft) N-NO 33 0 min 0,000 mm 0,0 UV-I 0 W/m 8,7 C 9,6 C 0,0 km/h (0 Bft) 0,00 %
06.09.2015 06:34 9,6 C 93 % 1017,1 hPa 0,0 l/m 4,7 km/h (1 Bft) SW 236 0 min 0,000 mm 0,0 UV-I 0 W/m 8,5 C 9,6 C 11,9 km/h (2 Bft) 0,00 %
06.09.2015 06:39 9,6 C 93 % 1017,2 hPa 0,0 l/m 3,2 km/h (1 Bft) O 81 0 min 0,000 mm 0,0 UV-I 0 W/m 8,5 C 9,6 C 7,9 km/h (2 Bft) 0,00 %
06.09.2015 06:44 9,7 C 93 % 1017,0 hPa 0,0 l/m 0,4 km/h (0 Bft) O-NO 73 0 min 0,000 mm 0,0 UV-I 0 W/m 8,6 C 9,7 C 4,0 km/h (1 Bft) 0,00 %
06.09.2015 06:49 9,8 C 92 % 1017,1 hPa 0,0 l/m 1,8 km/h (1 Bft) S 172 0 min 0,000 mm 0,0 UV-I 1 W/m 8,6 C 9,8 C 4,0 km/h (1 Bft) 0,00 %
06.09.2015 06:54 9,8 C 92 % 1017,1 hPa 0,0 l/m 2,2 km/h (1 Bft) S-SO 159 0 min 0,000 mm 0,0 UV-I 7 W/m 8,6 C 9,8 C 4,0 km/h (1 Bft) 0,00 %
06.09.2015 06:59 9,8 C 92 % 1017,3 hPa 0,0 l/m 0,4 km/h (0 Bft) O 80 0 min 0,000 mm 0,0 UV-I 17 W/m 8,6 C 9,8 C 4,0 km/h (1 Bft) 0,00 %
06.09.2015 07:04 9,9 C 92 % 1017,3 hPa 0,0 l/m 0,7 km/h (0 Bft) S-SO 154 0 min 0,000 mm 0,0 UV-I 25 W/m 8,7 C 9,9 C 4,0 km/h (1 Bft) 0,00 %
06.09.2015 07:09 9,9 C 91 % 1017,2 hPa 0,0 l/m 1,8 km/h (1 Bft) NW 317 0 min 0,000 mm 0,0 UV-I 38 W/m 8,5 C 9,9 C 4,0 km/h (1 Bft) 0,00 %
06.09.2015 07:14 9,9 C 91 % 1017,1 hPa 0,0 l/m 0,7 km/h (0 Bft) SW 216 0 min 0,000 mm 0,0 UV-I 47 W/m 8,5 C 9,9 C 4,0 km/h (1 Bft) 0,00 %
06.09.2015 07:19 10,0 C 90 % 1017,4 hPa 0,0 l/m 0,0 km/h (0 Bft) NO 52 0 min 0,000 mm 0,0 UV-I 38 W/m 8,4 C 10,0 C 0,0 km/h (0 Bft) 0,00 %
06.09.2015 07:24 10,1 C 90 % 1017,4 hPa 0,0 l/m 1,8 km/h (1 Bft) S-SW 207 0 min 0,000 mm 0,0 UV-I 31 W/m 8,5 C 10,1 C 4,0 km/h (1 Bft) 0,00 %
06.09.2015 07:29 10,1 C 90 % 1017,6 hPa 0,0 l/m 4,0 km/h (1 Bft) NO 51 0 min 0,000 mm 0,0 UV-I 0 W/m 8,5 C 10,1 C 7,9 km/h (2 Bft) 0,00 %
06.09.2015 07:34 10,1 C 90 % 1018,0 hPa 0,0 l/m 1,8 km/h (1 Bft) N-NW 335 0 min 0,000 mm 0,0 UV-I 0 W/m 8,5 C 10,1 C 4,0 km/h (1 Bft) 0,00 %
06.09.2015 07:39 10,0 C 86 % 1017,8 hPa 0,0 l/m 4,7 km/h (1 Bft) N 351 0 min 0,000 mm 0,0 UV-I 3 W/m 7,8 C 10,0 C 7,9 km/h (2 Bft) 0,00 %
06.09.2015 07:44 9,8 C 83 % 1018,2 hPa 0,0 l/m 4,0 km/h (1 Bft) W-NW 285 0 min 0,000 mm 0,0 UV-I 1 W/m 7,1 C 9,8 C 7,9 km/h (2 Bft) 0,00 %
06.09.2015 07:49 9,7 C 83 % 1018,3 hPa 0,0 l/m 0,4 km/h (0 Bft) NO 55 0 min 0,000 mm 0,0 UV-I 6 W/m 7,0 C 9,7 C 4,0 km/h (1 Bft) 0,00 %
06.09.2015 07:54 9,5 C 84 % 1018,4 hPa 0,0 l/m 5,4 km/h (1 Bft) W-SW 256 0 min 0,000 mm 0,0 UV-I 5 W/m 6,9 C 9,5 C 7,9 km/h (2 Bft) 0,00 %
06.09.2015 07:59 9,3 C 85 % 1018,2 hPa 0,0 l/m 3,2 km/h (1 Bft) W-NW 285 0 min 0,000 mm 0,0 UV-I 4 W/m 6,9 C 9,3 C 4,0 km/h (1 Bft) 0,00 %
06.09.2015 08:04 9,2 C 87 % 1018,3 hPa 0,3 l/m 2,9 km/h (1 Bft) SW 233 0 min 0,000 mm 0,0 UV-I 37 W/m 7,2 C 9,2 C 7,9 km/h (2 Bft) 0,00 %
06.09.2015 08:09 9,0 C 90 % 1018,5 hPa 0,0 l/m 0,0 km/h (0 Bft) N-NW 344 0 min 0,000 mm 0,0 UV-I 46 W/m 7,4 C 9,0 C 0,0 km/h (0 Bft) 0,00 %
06.09.2015 08:14 8,9 C 91 % 1018,5 hPa 0,3 l/m 0,0 km/h (0 Bft) N-NW 344 0 min 0,000 mm 0,0 UV-I 41 W/m 7,5 C 8,9 C 0,0 km/h (0 Bft) 0,00 %
06.09.2015 08:19 8,7 C 92 % 1018,5 hPa 0,0 l/m 0,0 km/h (0 Bft) N 358 0 min 0,000 mm 0,0 UV-I 38 W/m 7,5 C 8,7 C 0,0 km/h (0 Bft) 0,00 %
06.09.2015 08:24 8,6 C 93 % 1018,7 hPa 0,0 l/m 2,9 km/h (1 Bft) NW 311 0 min 0,000 mm 0,0 UV-I 45 W/m 7,5 C 8,6 C 4,0 km/h (1 Bft) 0,00 %
06.09.2015 08:29 8,6 C 94 % 1018,6 hPa 0,0 l/m 0,4 km/h (0 Bft) W-NW 298 0 min 0,000 mm 0,0 UV-I 53 W/m 7,7 C 8,6 C 4,0 km/h (1 Bft) 0,00 %
06.09.2015 08:34 8,6 C 94 % 1018,4 hPa 0,3 l/m 0,0 km/h (0 Bft) N 356 0 min 0,000 mm 0,0 UV-I 55 W/m 7,7 C 8,6 C 0,0 km/h (0 Bft) 0,00 %
06.09.2015 08:39 8,5 C 95 % 1018,8 hPa 0,0 l/m 0,7 km/h (0 Bft) O 86 0 min 0,000 mm 0,0 UV-I 66 W/m 7,7 C 8,5 C 4,0 km/h (1 Bft) 0,00 %
06.09.2015 08:44 8,5 C 95 % 1018,9 hPa 0,0 l/m 1,4 km/h (1 Bft) N 354 0 min 0,000 mm 0,0 UV-I 44 W/m 7,7 C 8,5 C 4,0 km/h (1 Bft) 0,00 %
06.09.2015 08:49 8,5 C 95 % 1018,9 hPa 0,0 l/m 4,0 km/h (1 Bft) NW 310 0 min 0,000 mm 0,0 UV-I 50 W/m 7,7 C 8,5 C 7,9 km/h (2 Bft) 0,00 %
06.09.2015 08:54 8,4 C 95 % 1018,8 hPa 0,0 l/m 0,4 km/h (0 Bft) N-NW 332 0 min 0,000 mm 0,0 UV-I 58 W/m 7,6 C 8,4 C 4,0 km/h (1 Bft) 0,00 %
06.09.2015 08:59 8,4 C 95 % 1018,9 hPa 0,0 l/m 2,2 km/h (1 Bft) O 91 0 min 0,000 mm 1,0 UV-I 102 W/m 7,6 C 8,4 C 7,9 km/h (2 Bft) 0,00 %
06.09.2015 09:04 8,5 C 96 % 1018,8 hPa 0,0 l/m 0,0 km/h (0 Bft) NO 38 0 min 0,000 mm 1,0 UV-I 143 W/m 7,9 C 8,5 C 0,0 km/h (0 Bft) 0,00 %
06.09.2015 09:09 8,7 C 95 % 1019,2 hPa 0,0 l/m 0,0 km/h (0 Bft) NO 44 0 min 0,000 mm 1,0 UV-I 215 W/m 7,9 C 8,7 C 0,0 km/h (0 Bft) 0,00 %
06.09.2015 09:14 9,0 C 95 % 1019,1 hPa 0,0 l/m 0,7 km/h (0 Bft) NW 324 0 min 0,000 mm 1,0 UV-I 128 W/m 8,2 C 9,0 C 4,0 km/h (1 Bft) 0,00 %
06.09.2015 09:19 9,2 C 94 % 1019,3 hPa 0,0 l/m 11,9 km/h (2 Bft) W-SW 256 0 min 0,000 mm 1,0 UV-I 110 W/m 8,3 C 5,6 C 11,9 km/h (2 Bft) 0,00 %
06.09.2015 09:24 9,2 C 94 % 1019,3 hPa 0,0 l/m 0,0 km/h (0 Bft) N 356 0 min 0,000 mm 1,0 UV-I 144 W/m 8,3 C 9,2 C 0,0 km/h (0 Bft) 0,00 %
06.09.2015 09:29 9,2 C 94 % 1019,3 hPa 0,0 l/m 0,7 km/h (0 Bft) W-SW 251 0 min 0,000 mm 1,0 UV-I 137 W/m 8,3 C 9,2 C 4,0 km/h (1 Bft) 0,00 %
06.09.2015 09:34 9,4 C 93 % 1019,4 hPa 0,0 l/m 0,4 km/h (0 Bft) O-NO 58 0 min 0,000 mm 0,0 UV-I 102 W/m 8,3 C 9,4 C 4,0 km/h (1 Bft) 0,00 %
06.09.2015 09:39 9,4 C 92 % 1019,4 hPa 0,0 l/m 5,4 km/h (1 Bft) W 279 0 min 0,000 mm 1,0 UV-I 110 W/m 8,2 C 9,4 C 7,9 km/h (2 Bft) 0,00 %
06.09.2015 09:44 9,3 C 92 % 1019,4 hPa 0,0 l/m 0,4 km/h (0 Bft) NO 37 0 min 0,000 mm 1,0 UV-I 142 W/m 8,1 C 9,3 C 4,0 km/h (1 Bft) 0,00 %
06.09.2015 09:49 9,3 C 92 % 1019,3 hPa 0,0 l/m 1,4 km/h (1 Bft) S 172 0 min 0,000 mm 1,0 UV-I 173 W/m 8,1 C 9,3 C 4,0 km/h (1 Bft) 0,00 %
06.09.2015 09:54 9,3 C 92 % 1019,5 hPa 0,0 l/m 0,0 km/h (0 Bft) N-NW 342 0 min 0,000 mm 1,0 UV-I 214 W/m 8,1 C 9,3 C 0,0 km/h (0 Bft) 0,00 %
06.09.2015 09:59 9,5 C 92 % 1019,9 hPa 0,0 l/m 0,0 km/h (0 Bft) W-SW 256 0 min 0,000 mm 1,0 UV-I 201 W/m 8,3 C 9,5 C 0,0 km/h (0 Bft) 0,00 %
06.09.2015 10:04 9,7 C 92 % 1019,9 hPa 0,0 l/m 0,4 km/h (0 Bft) O-NO 62 0 min 0,000 mm 1,0 UV-I 114 W/m 8,5 C 9,7 C 4,0 km/h (1 Bft) 0,00 %
06.09.2015 10:09 9,7 C 92 % 1020,0 hPa 0,0 l/m 0,0 km/h (0 Bft) NW 319 0 min 0,000 mm 1,0 UV-I 164 W/m 8,5 C 9,7 C 0,0 km/h (0 Bft) 0,00 %
06.09.2015 10:14 9,7 C 91 % 1020,1 hPa 0,0 l/m 0,4 km/h (0 Bft) O-NO 60 0 min 0,000 mm 1,0 UV-I 134 W/m 8,3 C 9,7 C 4,0 km/h (1 Bft) 0,00 %
06.09.2015 10:19 9,7 C 91 % 1020,1 hPa 0,0 l/m 0,0 km/h (0 Bft) N-NW 341 0 min 0,000 mm 1,0 UV-I 178 W/m 8,3 C 9,7 C 0,0 km/h (0 Bft) 0,00 %
06.09.2015 10:24 9,7 C 90 % 1020,1 hPa 0,3 l/m 0,0 km/h (0 Bft) S 191 0 min 0,000 mm 1,0 UV-I 191 W/m 8,1 C 9,7 C 0,0 km/h (0 Bft) 0,00 %
06.09.2015 10:29 9,8 C 89 % 1020,3 hPa 0,0 l/m 1,4 km/h (1 Bft) N-NW 338 0 min 0,000 mm 1,0 UV-I 246 W/m 8,1 C 9,8 C 4,0 km/h (1 Bft) 0,00 %
06.09.2015 10:34 9,9 C 87 % 1020,4 hPa 0,0 l/m 2,2 km/h (1 Bft) W-SW 256 0 min 0,000 mm 1,0 UV-I 234 W/m 7,8 C 9,9 C 4,0 km/h (1 Bft) 0,00 %
06.09.2015 10:39 10,1 C 86 % 1020,2 hPa 0,0 l/m 4,7 km/h (1 Bft) W-NW 287 0 min 0,000 mm 1,0 UV-I 224 W/m 7,9 C 10,1 C 7,9 km/h (2 Bft) 0,00 %
06.09.2015 10:44 10,2 C 86 % 1020,4 hPa 0,0 l/m 1,4 km/h (1 Bft) NO 41 0 min 0,000 mm 1,0 UV-I 219 W/m 8,0 C 10,2 C 4,0 km/h (1 Bft) 0,00 %
06.09.2015 10:49 10,2 C 85 % 1020,6 hPa 0,0 l/m 0,7 km/h (0 Bft) N-NW 336 0 min 0,000 mm 1,0 UV-I 216 W/m 7,8 C 10,2 C 4,0 km/h (1 Bft) 0,00 %
06.09.2015 10:54 10,3 C 84 % 1020,7 hPa 0,0 l/m 1,4 km/h (1 Bft) NO 53 0 min 0,000 mm 1,0 UV-I 246 W/m 7,7 C 10,3 C 4,0 km/h (1 Bft) 0,00 %
06.09.2015 10:59 10,4 C 83 % 1020,3 hPa 0,0 l/m 0,4 km/h (0 Bft) NO 48 0 min 0,000 mm 2,0 UV-I 341 W/m 7,6 C 10,4 C 4,0 km/h (1 Bft) 0,00 %
06.09.2015 11:04 10,6 C 83 % 1020,8 hPa 0,0 l/m 4,7 km/h (1 Bft) NW 322 0 min 0,000 mm 1,0 UV-I 180 W/m 7,8 C 10,6 C 11,9 km/h (2 Bft) 0,00 %
06.09.2015 11:09 10,7 C 80 % 1020,7 hPa 0,0 l/m 0,4 km/h (0 Bft) S 186 0 min 0,000 mm 1,0 UV-I 162 W/m 7,4 C 10,7 C 4,0 km/h (1 Bft) 0,00 %
06.09.2015 11:14 10,5 C 80 % 1020,8 hPa 0,0 l/m 7,2 km/h (2 Bft) W-SW 256 0 min 0,000 mm 1,0 UV-I 215 W/m 7,2 C 9,9 C 7,9 km/h (2 Bft) 0,00 %
06.09.2015 11:19 10,3 C 81 % 1021,0 hPa 0,0 l/m 0,7 km/h (0 Bft) NO 40 0 min 0,000 mm 1,0 UV-I 210 W/m 7,2 C 10,3 C 4,0 km/h (1 Bft) 0,00 %
06.09.2015 11:24 10,3 C 80 % 1020,9 hPa 0,0 l/m 5,4 km/h (1 Bft) W-SW 255 0 min 0,000 mm 1,0 UV-I 252 W/m 7,0 C 10,3 C 11,9 km/h (2 Bft) 0,00 %
06.09.2015 11:29 10,4 C 80 % 1021,0 hPa 0,0 l/m 3,2 km/h (1 Bft) N-NW 332 0 min 0,000 mm 1,0 UV-I 241 W/m 7,1 C 10,4 C 4,0 km/h (1 Bft) 0,00 %
06.09.2015 11:34 10,5 C 81 % 1020,9 hPa 0,0 l/m 2,2 km/h (1 Bft) N 351 0 min 0,000 mm 1,0 UV-I 310 W/m 7,4 C 10,5 C 4,0 km/h (1 Bft) 0,00 %
06.09.2015 11:39 10,7 C 80 % 1020,9 hPa 0,0 l/m 2,9 km/h (1 Bft) S 172 0 min 0,000 mm 1,0 UV-I 263 W/m 7,4 C 10,7 C 4,0 km/h (1 Bft) 0,00 %
06.09.2015 11:44 10,9 C 78 % 1021,0 hPa 0,0 l/m 7,2 km/h (2 Bft) O-SO 123 0 min 0,000 mm 1,0 UV-I 234 W/m 7,2 C 10,3 C 11,9 km/h (2 Bft) 0,00 %
06.09.2015 11:49 10,9 C 80 % 1021,0 hPa 0,0 l/m 0,7 km/h (0 Bft) N 351 0 min 0,000 mm 1,0 UV-I 248 W/m 7,6 C 10,9 C 4,0 km/h (1 Bft) 0,00 %
06.09.2015 11:54 10,7 C 81 % 1021,0 hPa 0,0 l/m 6,5 km/h (2 Bft) N 357 0 min 0,000 mm 1,0 UV-I 227 W/m 7,6 C 10,7 C 7,9 km/h (2 Bft) 0,00 %
06.09.2015 11:59 10,7 C 81 % 1021,3 hPa 0,0 l/m 4,0 km/h (1 Bft) W-SW 251 0 min 0,000 mm 1,0 UV-I 263 W/m 7,6 C 10,7 C 7,9 km/h (2 Bft) 0,00 %
06.09.2015 12:04 10,8 C 79 % 1021,2 hPa 0,0 l/m 11,9 km/h (2 Bft) SW 236 0 min 0,000 mm 1,0 UV-I 187 W/m 7,3 C 7,5 C 15,8 km/h (3 Bft) 0,00 %
06.09.2015 12:09 10,8 C 79 % 1021,3 hPa 0,0 l/m 0,4 km/h (0 Bft) N-NW 347 0 min 0,000 mm 1,0 UV-I 199 W/m 7,3 C 10,8 C 4,0 km/h (1 Bft) 0,00 %
06.09.2015 12:14 10,6 C 78 % 1021,3 hPa 0,0 l/m 1,4 km/h (1 Bft) NW 325 0 min 0,000 mm 1,0 UV-I 162 W/m 6,9 C 10,6 C 4,0 km/h (1 Bft) 0,00 %
06.09.2015 12:19 10,6 C 78 % 1021,3 hPa 0,0 l/m 2,9 km/h (1 Bft) N-NW 348 0 min 0,000 mm 1,0 UV-I 103 W/m 6,9 C 10,6 C 4,0 km/h (1 Bft) 0,00 %
06.09.2015 12:24 10,5 C 79 % 1021,5 hPa 0,0 l/m 6,8 km/h (2 Bft) S-SW 196 0 min 0,000 mm 1,0 UV-I 104 W/m 7,0 C 10,2 C 11,9 km/h (2 Bft) 0,00 %
06.09.2015 12:29 10,3 C 81 % 1021,3 hPa 0,0 l/m 0,0 km/h (0 Bft) N-NO 27 0 min 0,000 mm 1,0 UV-I 111 W/m 7,2 C 10,3 C 0,0 km/h (0 Bft) 0,00 %
06.09.2015 12:34 10,3 C 81 % 1021,2 hPa 0,0 l/m 2,9 km/h (1 Bft) W-SW 256 0 min 0,000 mm 1,0 UV-I 156 W/m 7,2 C 10,3 C 4,0 km/h (1 Bft) 0,00 %
06.09.2015 12:39 10,3 C 81 % 1021,3 hPa 0,0 l/m 1,4 km/h (1 Bft) O-NO 66 0 min 0,000 mm 2,0 UV-I 330 W/m 7,2 C 10,3 C 4,0 km/h (1 Bft) 0,00 %
06.09.2015 12:44 10,5 C 80 % 1021,2 hPa 0,0 l/m 3,2 km/h (1 Bft) O-SO 113 5 min 0,000 mm 3,0 UV-I 674 W/m 7,2 C 10,5 C 4,0 km/h (1 Bft) 0,00 %
06.09.2015 12:49 11,0 C 78 % 1021,3 hPa 0,0 l/m 1,8 km/h (1 Bft) S-SO 152 5 min 0,000 mm 2,0 UV-I 508 W/m 7,3 C 11,0 C 4,0 km/h (1 Bft) 0,00 %
06.09.2015 12:54 11,9 C 75 % 1021,3 hPa 0,0 l/m 4,0 km/h (1 Bft) O 81 5 min 0,000 mm 3,0 UV-I 645 W/m 7,6 C 11,9 C 4,0 km/h (1 Bft) 0,00 %
06.09.2015 12:59 12,6 C 72 % 1021,2 hPa 0,0 l/m 4,0 km/h (1 Bft) O 84 5 min 0,000 mm 2,0 UV-I 614 W/m 7,7 C 12,6 C 15,8 km/h (3 Bft) 0,00 %
06.09.2015 13:04 12,7 C 71 % 1021,0 hPa 0,0 l/m 1,8 km/h (1 Bft) W 277 0 min 0,000 mm 1,0 UV-I 323 W/m 7,6 C 12,7 C 4,0 km/h (1 Bft) 0,00 %
06.09.2015 13:09 12,0 C 73 % 1021,0 hPa 0,0 l/m 10,8 km/h (2 Bft) S-SW 213 0 min 0,000 mm 1,0 UV-I 311 W/m 7,3 C 9,4 C 19,8 km/h (3 Bft) 0,00 %
06.09.2015 13:14 11,5 C 74 % 1021,2 hPa 0,0 l/m 2,9 km/h (1 Bft) S 172 0 min 0,000 mm 1,0 UV-I 250 W/m 7,0 C 11,5 C 7,9 km/h (2 Bft) 0,00 %
06.09.2015 13:19 11,5 C 72 % 1021,3 hPa 0,0 l/m 5,8 km/h (2 Bft) W 260 0 min 0,000 mm 1,0 UV-I 251 W/m 6,6 C 11,5 C 7,9 km/h (2 Bft) 0,00 %
06.09.2015 13:24 11,5 C 73 % 1021,3 hPa 0,0 l/m 9,0 km/h (2 Bft) O-NO 75 0 min 0,000 mm 1,0 UV-I 213 W/m 6,8 C 9,8 C 24,1 km/h (4 Bft) 0,00 %
06.09.2015 13:29 11,4 C 71 % 1021,3 hPa 0,0 l/m 9,7 km/h (2 Bft) N-NW 332 0 min 0,000 mm 1,0 UV-I 283 W/m 6,3 C 9,3 C 15,8 km/h (3 Bft) 0,00 %
06.09.2015 13:34 11,3 C 72 % 1020,8 hPa 0,0 l/m 11,5 km/h (2 Bft) W-SW 253 5 min 0,000 mm 3,0 UV-I 734 W/m 6,4 C 8,3 C 15,8 km/h (3 Bft) 0,00 %
06.09.2015 13:39 11,7 C 71 % 1021,3 hPa 0,0 l/m 6,5 km/h (2 Bft) W-SW 252 5 min 0,000 mm 3,0 UV-I 666 W/m 6,6 C 11,7 C 7,9 km/h (2 Bft) 0,00 %
06.09.2015 13:44 12,0 C 68 % 1021,2 hPa 0,0 l/m 7,2 km/h (2 Bft) W-NW 291 0 min 0,000 mm 1,0 UV-I 181 W/m 6,3 C 11,5 C 15,8 km/h (3 Bft) 0,00 %
06.09.2015 13:49 12,0 C 68 % 1021,6 hPa 0,0 l/m 1,8 km/h (1 Bft) O 79 0 min 0,000 mm 1,0 UV-I 184 W/m 6,3 C 12,0 C 4,0 km/h (1 Bft) 0,00 %
06.09.2015 13:54 12,0 C 68 % 1021,4 hPa 0,0 l/m 14,0 km/h (3 Bft) W-SW 255 5 min 0,000 mm 2,0 UV-I 494 W/m 6,3 C 8,0 C 19,8 km/h (3 Bft) 0,00 %
06.09.2015 13:59 12,1 C 67 % 1021,4 hPa 0,0 l/m 7,9 km/h (2 Bft) W-NW 286 5 min 0,000 mm 3,0 UV-I 959 W/m 6,2 C 11,1 C 11,9 km/h (2 Bft) 0,00 %
06.09.2015 14:04 12,7 C 65 % 1021,4 hPa 0,0 l/m 10,4 km/h (2 Bft) SW 231 5 min 0,000 mm 2,0 UV-I 426 W/m 6,3 C 10,4 C 15,8 km/h (3 Bft) 0,00 %
06.09.2015 14:09 13,4 C 66 % 1021,5 hPa 0,0 l/m 1,8 km/h (1 Bft) O-NO 65 5 min 0,000 mm 3,0 UV-I 961 W/m 7,2 C 13,4 C 7,9 km/h (2 Bft) 0,00 %
06.09.2015 14:14 13,8 C 64 % 1021,5 hPa 0,0 l/m 2,2 km/h (1 Bft) W-NW 291 0 min 0,000 mm 2,0 UV-I 367 W/m 7,1 C 13,8 C 4,0 km/h (1 Bft) 0,00 %
06.09.2015 14:19 13,8 C 67 % 1021,5 hPa 0,0 l/m 11,5 km/h (2 Bft) SW 219 5 min 0,000 mm 3,0 UV-I 705 W/m 7,8 C 11,1 C 15,8 km/h (3 Bft) 0,00 %
06.09.2015 14:24 13,6 C 65 % 1021,4 hPa 0,0 l/m 10,8 km/h (2 Bft) N-NW 333 0 min 0,000 mm 1,0 UV-I 255 W/m 7,1 C 11,2 C 19,8 km/h (3 Bft) 0,00 %
06.09.2015 14:29 13,4 C 64 % 1021,5 hPa 0,0 l/m 4,7 km/h (1 Bft) S-SW 213 0 min 0,000 mm 1,0 UV-I 174 W/m 6,7 C 13,4 C 7,9 km/h (2 Bft) 0,00 %
06.09.2015 14:34 12,8 C 68 % 1021,6 hPa 0,0 l/m 10,4 km/h (2 Bft) W-SW 253 0 min 0,000 mm 1,0 UV-I 178 W/m 7,0 C 10,5 C 11,9 km/h (2 Bft) 0,00 %
06.09.2015 14:39 12,4 C 69 % 1021,6 hPa 0,0 l/m 2,2 km/h (1 Bft) O 79 0 min 0,000 mm 1,0 UV-I 214 W/m 6,9 C 12,4 C 7,9 km/h (2 Bft) 0,00 %
06.09.2015 14:44 12,3 C 67 % 1021,5 hPa 0,0 l/m 4,3 km/h (1 Bft) N 355 0 min 0,000 mm 1,0 UV-I 282 W/m 6,4 C 12,3 C 7,9 km/h (2 Bft) 0,00 %
06.09.2015 14:49 12,4 C 67 % 1021,3 hPa 0,0 l/m 1,8 km/h (1 Bft) W-SW 256 0 min 0,000 mm 1,0 UV-I 205 W/m 6,4 C 12,4 C 4,0 km/h (1 Bft) 0,00 %
06.09.2015 14:54 12,6 C 66 % 1021,4 hPa 0,0 l/m 0,7 km/h (0 Bft) N 352 0 min 0,000 mm 1,0 UV-I 197 W/m 6,4 C 12,6 C 4,0 km/h (1 Bft) 0,00 %
06.09.2015 14:59 13,0 C 62 % 1021,4 hPa 0,0 l/m 5,8 km/h (2 Bft) N-NW 343 0 min 0,000 mm 1,0 UV-I 244 W/m 5,9 C 13,0 C 11,9 km/h (2 Bft) 0,00 %
06.09.2015 15:04 13,1 C 63 % 1021,7 hPa 0,0 l/m 5,8 km/h (2 Bft) N 357 0 min 0,000 mm 1,0 UV-I 210 W/m 6,2 C 13,1 C 7,9 km/h (2 Bft) 0,00 %
06.09.2015 15:09 12,9 C 63 % 1021,6 hPa 0,0 l/m 11,9 km/h (2 Bft) W-NW 303 0 min 0,000 mm 1,0 UV-I 186 W/m 6,0 C 9,9 C 15,8 km/h (3 Bft) 0,00 %
06.09.2015 15:14 12,7 C 67 % 1021,8 hPa 0,0 l/m 3,2 km/h (1 Bft) O-NO 71 0 min 0,000 mm 1,0 UV-I 237 W/m 6,7 C 12,7 C 7,9 km/h (2 Bft) 0,00 %
06.09.2015 15:19 12,1 C 74 % 1021,5 hPa 0,0 l/m 8,3 km/h (2 Bft) W-SW 252 5 min 0,000 mm 1,0 UV-I 751 W/m 7,6 C 10,9 C 11,9 km/h (2 Bft) 0,00 %
06.09.2015 15:24 11,9 C 74 % 1021,6 hPa 0,0 l/m 1,4 km/h (1 Bft) N-NW 334 5 min 0,000 mm 1,0 UV-I 755 W/m 7,4 C 11,9 C 4,0 km/h (1 Bft) 0,00 %
06.09.2015 15:29 12,3 C 70 % 1021,6 hPa 0,0 l/m 4,0 km/h (1 Bft) NO 56 5 min 0,000 mm 1,0 UV-I 402 W/m 7,0 C 12,3 C 4,0 km/h (1 Bft) 0,00 %
06.09.2015 15:34 13,1 C 63 % 1021,4 hPa 0,0 l/m 22,3 km/h (4 Bft) W-SW 254 0 min 0,000 mm 1,0 UV-I 222 W/m 6,2 C 6,7 C 28,1 km/h (4 Bft) 0,00 %
06.09.2015 15:39 13,8 C 61 % 1021,3 hPa 0,0 l/m 9,4 km/h (2 Bft) W-NW 295 0 min 0,000 mm 1,0 UV-I 236 W/m 6,4 C 12,1 C 11,9 km/h (2 Bft) 0,00 %
06.09.2015 15:44 14,0 C 59 % 1021,5 hPa 0,0 l/m 4,3 km/h (1 Bft) O-NO 74 0 min 0,000 mm 1,0 UV-I 230 W/m 6,1 C 14,0 C 7,9 km/h (2 Bft) 0,00 %
06.09.2015 15:49 13,9 C 60 % 1021,5 hPa 0,0 l/m 17,3 km/h (3 Bft) W-SW 251 0 min 0,000 mm 1,0 UV-I 206 W/m 6,3 C 9,1 C 28,1 km/h (4 Bft) 0,00 %
06.09.2015 15:54 13,7 C 62 % 1021,6 hPa 0,0 l/m 14,4 km/h (3 Bft) N-NW 336 5 min 0,000 mm 1,0 UV-I 323 W/m 6,6 C 9,8 C 15,8 km/h (3 Bft) 0,00 %
06.09.2015 15:59 13,9 C 58 % 1021,5 hPa 0,0 l/m 9,0 km/h (2 Bft) W 271 5 min 0,000 mm 1,0 UV-I 349 W/m 5,8 C 12,4 C 15,8 km/h (3 Bft) 0,00 %
06.09.2015 16:04 14,3 C 56 % 1021,2 hPa 0,0 l/m 16,9 km/h (3 Bft) W-SW 249 0 min 0,000 mm 1,0 UV-I 268 W/m 5,6 C 9,7 C 19,8 km/h (3 Bft) 0,00 %
06.09.2015 16:09 14,5 C 58 % 1021,3 hPa 0,0 l/m 14,8 km/h (3 Bft) W 281 0 min 0,000 mm 1,0 UV-I 269 W/m 6,3 C 10,7 C 19,8 km/h (3 Bft) 0,00 %
06.09.2015 16:14 14,4 C 57 % 1021,2 hPa 0,0 l/m 6,5 km/h (2 Bft) N-NW 340 0 min 0,000 mm 1,0 UV-I 191 W/m 6,0 C 14,4 C 11,9 km/h (2 Bft) 0,00 %
06.09.2015 16:19 14,1 C 59 % 1021,4 hPa 0,0 l/m 8,3 km/h (2 Bft) SW 219 0 min 0,000 mm 1,0 UV-I 141 W/m 6,2 C 13,0 C 11,9 km/h (2 Bft) 0,00 %
06.09.2015 16:24 13,7 C 60 % 1021,4 hPa 0,0 l/m 7,2 km/h (2 Bft) W-NW 287 0 min 0,000 mm 1,0 UV-I 125 W/m 6,1 C 13,2 C 11,9 km/h (2 Bft) 0,00 %
06.09.2015 16:29 13,4 C 60 % 1021,4 hPa 0,0 l/m 9,7 km/h (2 Bft) W-SW 247 0 min 0,000 mm 1,0 UV-I 115 W/m 5,8 C 11,5 C 15,8 km/h (3 Bft) 0,00 %
06.09.2015 16:34 13,2 C 61 % 1021,3 hPa 0,0 l/m 14,0 km/h (3 Bft) W 267 0 min 0,000 mm 1,0 UV-I 143 W/m 5,8 C 9,4 C 19,8 km/h (3 Bft) 0,00 %
06.09.2015 16:39 13,2 C 62 % 1021,5 hPa 0,0 l/m 2,2 km/h (1 Bft) NO 51 0 min 0,000 mm 1,0 UV-I 192 W/m 6,1 C 13,2 C 4,0 km/h (1 Bft) 0,00 %
06.09.2015 16:44 13,2 C 61 % 1021,4 hPa 0,0 l/m 2,2 km/h (1 Bft) O 88 0 min 0,000 mm 1,0 UV-I 129 W/m 5,8 C 13,2 C 4,0 km/h (1 Bft) 0,00 %
06.09.2015 16:49 13,2 C 61 % 1021,6 hPa 0,0 l/m 2,2 km/h (1 Bft) NW 304 0 min 0,000 mm 1,0 UV-I 200 W/m 5,8 C 13,2 C 7,9 km/h (2 Bft) 0,00 %
06.09.2015 16:54 13,2 C 61 % 1021,5 hPa 0,0 l/m 5,8 km/h (2 Bft) SO 144 5 min 0,000 mm 1,0 UV-I 242 W/m 5,8 C 13,2 C 11,9 km/h (2 Bft) 0,00 %
06.09.2015 16:59 13,6 C 57 % 1021,8 hPa 0,0 l/m 0,7 km/h (0 Bft) O-NO 71 5 min 0,000 mm 1,0 UV-I 330 W/m 5,2 C 13,6 C 4,0 km/h (1 Bft) 0,00 %
06.09.2015 17:04 13,8 C 60 % 1021,7 hPa 0,0 l/m 2,2 km/h (1 Bft) S-SW 201 0 min 0,000 mm 1,0 UV-I 139 W/m 6,2 C 13,8 C 4,0 km/h (1 Bft) 0,00 %
06.09.2015 17:09 13,5 C 61 % 1021,7 hPa 0,0 l/m 10,4 km/h (2 Bft) N-NW 342 0 min 0,000 mm 1,0 UV-I 106 W/m 6,1 C 11,3 C 11,9 km/h (2 Bft) 0,00 %
06.09.2015 17:14 13,1 C 62 % 1021,6 hPa 0,0 l/m 11,9 km/h (2 Bft) W-SW 255 0 min 0,000 mm 0,0 UV-I 91 W/m 6,0 C 10,1 C 15,8 km/h (3 Bft) 0,00 %
06.09.2015 17:19 12,9 C 63 % 1021,6 hPa 0,0 l/m 1,8 km/h (1 Bft) W-NW 297 0 min 0,000 mm 0,0 UV-I 128 W/m 6,0 C 12,9 C 4,0 km/h (1 Bft) 0,00 %
06.09.2015 17:24 12,9 C 61 % 1021,6 hPa 0,0 l/m 5,8 km/h (2 Bft) N-NW 338 5 min 0,000 mm 1,0 UV-I 203 W/m 5,6 C 12,9 C 11,9 km/h (2 Bft) 0,00 %
06.09.2015 17:29 13,0 C 61 % 1021,6 hPa 0,0 l/m 1,4 km/h (1 Bft) W-SW 253 0 min 0,000 mm 1,0 UV-I 188 W/m 5,7 C 13,0 C 4,0 km/h (1 Bft) 0,00 %
06.09.2015 17:34 13,2 C 61 % 1021,7 hPa 0,0 l/m 0,0 km/h (0 Bft) NO 40 0 min 0,000 mm 1,0 UV-I 142 W/m 5,8 C 13,2 C 0,0 km/h (0 Bft) 0,00 %
06.09.2015 17:39 13,2 C 61 % 1021,6 hPa 0,0 l/m 9,7 km/h (2 Bft) N 350 5 min 0,000 mm 1,0 UV-I 197 W/m 5,8 C 11,3 C 15,8 km/h (3 Bft) 0,00 %
06.09.2015 17:44 13,2 C 61 % 1021,7 hPa 0,0 l/m 10,8 km/h (2 Bft) W-SW 252 5 min 0,000 mm 1,0 UV-I 438 W/m 5,8 C 10,7 C 19,8 km/h (3 Bft) 0,00 %
06.09.2015 17:49 13,4 C 60 % 1021,6 hPa 0,0 l/m 9,0 km/h (2 Bft) S-SW 200 0 min 0,000 mm 1,0 UV-I 127 W/m 5,8 C 11,9 C 11,9 km/h (2 Bft) 0,00 %
06.09.2015 17:54 13,4 C 61 % 1021,7 hPa 0,0 l/m 3,2 km/h (1 Bft) W-SW 251 0 min 0,000 mm 1,0 UV-I 120 W/m 6,0 C 13,4 C 7,9 km/h (2 Bft) 0,00 %
06.09.2015 17:59 13,1 C 63 % 1021,8 hPa 0,0 l/m 1,4 km/h (1 Bft) W 275 5 min 0,000 mm 1,0 UV-I 588 W/m 6,2 C 13,1 C 4,0 km/h (1 Bft) 0,00 %
06.09.2015 18:04 13,0 C 61 % 1021,8 hPa 0,0 l/m 10,8 km/h (2 Bft) W-SW 255 0 min 0,000 mm 1,0 UV-I 111 W/m 5,7 C 10,5 C 11,9 km/h (2 Bft) 0,00 %
06.09.2015 18:09 13,0 C 63 % 1021,9 hPa 0,0 l/m 3,2 km/h (1 Bft) O 90 0 min 0,000 mm 1,0 UV-I 81 W/m 6,1 C 13,0 C 7,9 km/h (2 Bft) 0,00 %
06.09.2015 18:14 12,8 C 64 % 1022,0 hPa 0,0 l/m 4,0 km/h (1 Bft) W-NW 295 0 min 0,000 mm 0,0 UV-I 103 W/m 6,2 C 12,8 C 7,9 km/h (2 Bft) 0,00 %
06.09.2015 18:19 12,6 C 64 % 1022,2 hPa 0,0 l/m 6,8 km/h (2 Bft) W-SW 256 0 min 0,000 mm 0,0 UV-I 104 W/m 6,0 C 12,4 C 11,9 km/h (2 Bft) 0,00 %
06.09.2015 18:24 12,5 C 63 % 1022,0 hPa 0,0 l/m 0,4 km/h (0 Bft) O-NO 58 5 min 0,000 mm 0,0 UV-I 111 W/m 5,7 C 12,5 C 4,0 km/h (1 Bft) 0,00 %
06.09.2015 18:29 12,5 C 63 % 1022,1 hPa 0,0 l/m 7,9 km/h (2 Bft) W-SW 256 5 min 0,000 mm 0,0 UV-I 407 W/m 5,7 C 11,5 C 11,9 km/h (2 Bft) 0,00 %
06.09.2015 18:34 12,6 C 62 % 1021,6 hPa 0,0 l/m 6,8 km/h (2 Bft) W 266 5 min 0,000 mm 0,0 UV-I 362 W/m 5,5 C 12,4 C 11,9 km/h (2 Bft) 0,00 %
06.09.2015 18:39 12,8 C 61 % 1022,0 hPa 0,0 l/m 5,4 km/h (1 Bft) NW 314 5 min 0,000 mm 0,0 UV-I 331 W/m 5,5 C 12,8 C 11,9 km/h (2 Bft) 0,00 %
06.09.2015 18:44 12,9 C 62 % 1022,3 hPa 0,0 l/m 7,2 km/h (2 Bft) W-SW 255 5 min 0,000 mm 0,0 UV-I 290 W/m 5,8 C 12,4 C 15,8 km/h (3 Bft) 0,00 %
06.09.2015 18:49 12,9 C 61 % 1022,1 hPa 0,0 l/m 5,4 km/h (1 Bft) W-SW 256 5 min 0,000 mm 0,0 UV-I 264 W/m 5,6 C 12,9 C 7,9 km/h (2 Bft) 0,00 %
06.09.2015 18:54 12,9 C 62 % 1022,2 hPa 0,0 l/m 6,8 km/h (2 Bft) O-SO 120 5 min 0,000 mm 0,0 UV-I 226 W/m 5,8 C 12,7 C 11,9 km/h (2 Bft) 0,00 %
06.09.2015 18:59 12,8 C 62 % 1022,2 hPa 0,0 l/m 1,8 km/h (1 Bft) NW 317 5 min 0,000 mm 0,0 UV-I 195 W/m 5,7 C 12,8 C 4,0 km/h (1 Bft) 0,00 %
06.09.2015 19:04 12,7 C 62 % 1022,1 hPa 0,0 l/m 10,4 km/h (2 Bft) W-SW 256 5 min 0,000 mm 0,0 UV-I 156 W/m 5,6 C 10,4 C 15,8 km/h (3 Bft) 0,00 %
06.09.2015 19:09 12,6 C 62 % 1022,2 hPa 0,0 l/m 9,7 km/h (2 Bft) W 269 5 min 0,000 mm 0,0 UV-I 53 W/m 5,5 C 10,6 C 11,9 km/h (2 Bft) 0,00 %
06.09.2015 19:14 12,4 C 62 % 1022,2 hPa 0,0 l/m 4,0 km/h (1 Bft) NW 323 5 min 0,000 mm 0,0 UV-I 37 W/m 5,3 C 12,4 C 7,9 km/h (2 Bft) 0,00 %
06.09.2015 19:19 12,2 C 63 % 1022,1 hPa 0,0 l/m 2,2 km/h (1 Bft) N 355 5 min 0,000 mm 0,0 UV-I 26 W/m 5,4 C 12,2 C 4,0 km/h (1 Bft) 0,00 %
06.09.2015 19:24 12,0 C 65 % 1022,2 hPa 0,0 l/m 7,2 km/h (2 Bft) W-NW 303 0 min 0,000 mm 0,0 UV-I 9 W/m 5,6 C 11,5 C 7,9 km/h (2 Bft) 0,00 %
06.09.2015 19:29 11,7 C 66 % 1022,3 hPa 0,0 l/m 0,4 km/h (0 Bft) N 358 0 min 0,000 mm 0,0 UV-I 4 W/m 5,6 C 11,7 C 4,0 km/h (1 Bft) 0,00 %
06.09.2015 19:34 11,3 C 67 % 1022,5 hPa 0,0 l/m 4,7 km/h (1 Bft) W-SW 247 0 min 0,000 mm 0,0 UV-I 0 W/m 5,4 C 11,3 C 7,9 km/h (2 Bft) 0,00 %
06.09.2015 19:39 11,1 C 66 % 1022,4 hPa 0,0 l/m 0,0 km/h (0 Bft) NW 311 0 min 0,000 mm 0,0 UV-I 0 W/m 5,0 C 11,1 C 0,0 km/h (0 Bft) 0,00 %
06.09.2015 19:44 11,1 C 68 % 1022,4 hPa 0,0 l/m 1,8 km/h (1 Bft) W-SW 252 0 min 0,000 mm 0,0 UV-I 0 W/m 5,4 C 11,1 C 4,0 km/h (1 Bft) 0,00 %
06.09.2015 19:49 11,0 C 69 % 1022,6 hPa 0,0 l/m 0,0 km/h (0 Bft) N 353 0 min 0,000 mm 0,0 UV-I 0 W/m 5,5 C 11,0 C 0,0 km/h (0 Bft) 0,00 %
06.09.2015 19:54 10,8 C 69 % 1022,6 hPa 0,0 l/m 0,7 km/h (0 Bft) N 351 0 min 0,000 mm 0,0 UV-I 0 W/m 5,3 C 10,8 C 4,0 km/h (1 Bft) 0,00 %
06.09.2015 19:59 10,7 C 69 % 1022,7 hPa 0,0 l/m 0,7 km/h (0 Bft) NW 308 0 min 0,000 mm 0,0 UV-I 0 W/m 5,2 C 10,7 C 4,0 km/h (1 Bft) 0,00 %
06.09.2015 20:04 10,7 C 69 % 1022,8 hPa 0,0 l/m 0,4 km/h (0 Bft) O-NO 66 0 min 0,000 mm 0,0 UV-I 0 W/m 5,2 C 10,7 C 4,0 km/h (1 Bft) 0,00 %
06.09.2015 20:09 10,7 C 69 % 1022,7 hPa 0,0 l/m 0,7 km/h (0 Bft) W-SW 256 0 min 0,000 mm 0,0 UV-I 0 W/m 5,2 C 10,7 C 4,0 km/h (1 Bft) 0,00 %
06.09.2015 20:14 10,8 C 70 % 1022,9 hPa 0,0 l/m 0,4 km/h (0 Bft) N-NW 332 0 min 0,000 mm 0,0 UV-I 0 W/m 5,6 C 10,8 C 4,0 km/h (1 Bft) 0,00 %
06.09.2015 20:19 10,8 C 69 % 1023,0 hPa 0,0 l/m 1,4 km/h (1 Bft) W 273 0 min 0,000 mm 0,0 UV-I 0 W/m 5,3 C 10,8 C 4,0 km/h (1 Bft) 0,00 %
06.09.2015 20:24 10,9 C 70 % 1023,0 hPa 0,0 l/m 1,8 km/h (1 Bft) S 176 0 min 0,000 mm 0,0 UV-I 0 W/m 5,6 C 10,9 C 4,0 km/h (1 Bft) 0,00 %
06.09.2015 20:29 10,9 C 69 % 1023,2 hPa 0,0 l/m 2,2 km/h (1 Bft) O-NO 68 0 min 0,000 mm 0,0 UV-I 0 W/m 5,4 C 10,9 C 4,0 km/h (1 Bft) 0,00 %
06.09.2015 20:34 10,9 C 69 % 1023,2 hPa 0,0 l/m 1,8 km/h (1 Bft) N 5 0 min 0,000 mm 0,0 UV-I 0 W/m 5,4 C 10,9 C 4,0 km/h (1 Bft) 0,00 %
06.09.2015 20:39 10,8 C 70 % 1023,3 hPa 0,0 l/m 0,0 km/h (0 Bft) N 354 0 min 0,000 mm 0,0 UV-I 0 W/m 5,6 C 10,8 C 0,0 km/h (0 Bft) 0,00 %
06.09.2015 20:44 10,8 C 70 % 1023,3 hPa 0,0 l/m 0,7 km/h (0 Bft) N-NO 28 0 min 0,000 mm 0,0 UV-I 0 W/m 5,6 C 10,8 C 4,0 km/h (1 Bft) 0,00 %
06.09.2015 20:49 10,8 C 70 % 1023,2 hPa 0,0 l/m 0,0 km/h (0 Bft) O 81 0 min 0,000 mm 0,0 UV-I 0 W/m 5,6 C 10,8 C 0,0 km/h (0 Bft) 0,00 %
06.09.2015 20:54 10,7 C 71 % 1023,2 hPa 0,0 l/m 2,2 km/h (1 Bft) W-NW 299 0 min 0,000 mm 0,0 UV-I 0 W/m 5,7 C 10,7 C 4,0 km/h (1 Bft) 0,00 %
06.09.2015 20:59 10,7 C 72 % 1023,4 hPa 0,0 l/m 2,2 km/h (1 Bft) N 350 0 min 0,000 mm 0,0 UV-I 0 W/m 5,9 C 10,7 C 4,0 km/h (1 Bft) 0,00 %
06.09.2015 21:04 10,6 C 71 % 1023,4 hPa 0,0 l/m 0,0 km/h (0 Bft) NW 318 0 min 0,000 mm 0,0 UV-I 0 W/m 5,6 C 10,6 C 0,0 km/h (0 Bft) 0,00 %
06.09.2015 21:09 10,6 C 71 % 1023,7 hPa 0,0 l/m 0,4 km/h (0 Bft) N-NW 348 0 min 0,000 mm 0,0 UV-I 0 W/m 5,6 C 10,6 C 4,0 km/h (1 Bft) 0,00 %
06.09.2015 21:14 10,6 C 71 % 1023,6 hPa 0,0 l/m 0,0 km/h (0 Bft) NO 37 0 min 0,000 mm 0,0 UV-I 0 W/m 5,6 C 10,6 C 0,0 km/h (0 Bft) 0,00 %
06.09.2015 21:19 10,6 C 71 % 1023,7 hPa 0,0 l/m 0,4 km/h (0 Bft) NO 34 0 min 0,000 mm 0,0 UV-I 0 W/m 5,6 C 10,6 C 4,0 km/h (1 Bft) 0,00 %
06.09.2015 21:24 10,7 C 71 % 1023,6 hPa 0,0 l/m 3,2 km/h (1 Bft) W-NW 289 0 min 0,000 mm 0,0 UV-I 0 W/m 5,7 C 10,7 C 4,0 km/h (1 Bft) 0,00 %
06.09.2015 21:29 10,6 C 71 % 1023,7 hPa 0,0 l/m 0,0 km/h (0 Bft) N-NO 25 0 min 0,000 mm 0,0 UV-I 0 W/m 5,6 C 10,6 C 0,0 km/h (0 Bft) 0,00 %
06.09.2015 21:34 10,6 C 71 % 1023,7 hPa 0,0 l/m 1,8 km/h (1 Bft) S-SW 207 0 min 0,000 mm 0,0 UV-I 0 W/m 5,6 C 10,6 C 4,0 km/h (1 Bft) 0,00 %
06.09.2015 21:39 10,6 C 71 % 1023,5 hPa 0,0 l/m 0,0 km/h (0 Bft) N-NW 327 0 min 0,000 mm 0,0 UV-I 0 W/m 5,6 C 10,6 C 0,0 km/h (0 Bft) 0,00 %
06.09.2015 21:44 10,6 C 71 % 1023,8 hPa 0,0 l/m 0,4 km/h (0 Bft) N 6 0 min 0,000 mm 0,0 UV-I 0 W/m 5,6 C 10,6 C 4,0 km/h (1 Bft) 0,00 %
06.09.2015 21:49 10,6 C 71 % 1023,8 hPa 0,0 l/m 1,4 km/h (1 Bft) NW 325 0 min 0,000 mm 0,0 UV-I 0 W/m 5,6 C 10,6 C 4,0 km/h (1 Bft) 0,00 %
06.09.2015 21:55 10,6 C 71 % 1023,3 hPa 0,0 l/m 0,0 km/h (0 Bft) N-NO 22 0 min 0,000 mm 0,0 UV-I 0 W/m 5,6 C 10,6 C 0,0 km/h (0 Bft) 0,00 %
06.09.2015 22:00 10,6 C 71 % 1023,8 hPa 0,0 l/m 1,8 km/h (1 Bft) N-NW 340 0 min 0,000 mm 0,0 UV-I 0 W/m 5,6 C 10,6 C 4,0 km/h (1 Bft) 0,00 %
06.09.2015 22:05 10,6 C 71 % 1023,8 hPa 0,0 l/m 0,4 km/h (0 Bft) N-NO 29 0 min 0,000 mm 0,0 UV-I 0 W/m 5,6 C 10,6 C 4,0 km/h (1 Bft) 0,00 %
06.09.2015 22:10 10,6 C 71 % 1023,9 hPa 0,0 l/m 0,0 km/h (0 Bft) N 350 0 min 0,000 mm 0,0 UV-I 0 W/m 5,6 C 10,6 C 0,0 km/h (0 Bft) 0,00 %
06.09.2015 22:15 10,6 C 71 % 1023,7 hPa 0,0 l/m 1,4 km/h (1 Bft) N-NW 335 0 min 0,000 mm 0,0 UV-I 0 W/m 5,6 C 10,6 C 4,0 km/h (1 Bft) 0,00 %
06.09.2015 22:20 10,6 C 71 % 1023,9 hPa 0,0 l/m 0,4 km/h (0 Bft) N 357 0 min 0,000 mm 0,0 UV-I 0 W/m 5,6 C 10,6 C 4,0 km/h (1 Bft) 0,00 %
06.09.2015 22:25 10,6 C 71 % 1023,8 hPa 0,0 l/m 1,8 km/h (1 Bft) NO 38 0 min 0,000 mm 0,0 UV-I 0 W/m 5,6 C 10,6 C 4,0 km/h (1 Bft) 0,00 %
06.09.2015 22:30 10,6 C 71 % 1024,0 hPa 0,0 l/m 0,4 km/h (0 Bft) N-NW 334 0 min 0,000 mm 0,0 UV-I 0 W/m 5,6 C 10,6 C 4,0 km/h (1 Bft) 0,00 %
06.09.2015 22:35 10,6 C 71 % 1023,9 hPa 0,0 l/m 0,0 km/h (0 Bft) O-NO 77 0 min 0,000 mm 0,0 UV-I 0 W/m 5,6 C 10,6 C 0,0 km/h (0 Bft) 0,00 %
06.09.2015 22:40 10,6 C 71 % 1023,9 hPa 0,0 l/m 1,4 km/h (1 Bft) N-NW 336 0 min 0,000 mm 0,0 UV-I 0 W/m 5,6 C 10,6 C 4,0 km/h (1 Bft) 0,00 %
06.09.2015 22:45 10,6 C 72 % 1023,7 hPa 0,0 l/m 1,4 km/h (1 Bft) O-SO 102 0 min 0,000 mm 0,0 UV-I 0 W/m 5,8 C 10,6 C 4,0 km/h (1 Bft) 0,00 %
06.09.2015 22:50 10,6 C 71 % 1023,8 hPa 0,0 l/m 0,7 km/h (0 Bft) W-SW 253 0 min 0,000 mm 0,0 UV-I 0 W/m 5,6 C 10,6 C 4,0 km/h (1 Bft) 0,00 %
06.09.2015 22:55 10,6 C 71 % 1024,1 hPa 0,0 l/m 1,4 km/h (1 Bft) O-NO 78 0 min 0,000 mm 0,0 UV-I 0 W/m 5,6 C 10,6 C 4,0 km/h (1 Bft) 0,00 %
06.09.2015 23:00 10,6 C 71 % 1023,9 hPa 0,0 l/m 7,2 km/h (2 Bft) SW 232 0 min 0,000 mm 0,0 UV-I 0 W/m 5,6 C 10,0 C 7,9 km/h (2 Bft) 0,00 %
06.09.2015 23:05 10,6 C 71 % 1023,9 hPa 0,0 l/m 0,7 km/h (0 Bft) N 356 0 min 0,000 mm 0,0 UV-I 0 W/m 5,6 C 10,6 C 4,0 km/h (1 Bft) 0,00 %
06.09.2015 23:10 10,6 C 72 % 1024,0 hPa 0,0 l/m 0,0 km/h (0 Bft) NO 43 0 min 0,000 mm 0,0 UV-I 0 W/m 5,8 C 10,6 C 0,0 km/h (0 Bft) 0,00 %
06.09.2015 23:15 10,6 C 71 % 1024,0 hPa 0,0 l/m 0,4 km/h (0 Bft) NO 47 0 min 0,000 mm 0,0 UV-I 0 W/m 5,6 C 10,6 C 4,0 km/h (1 Bft) 0,00 %
06.09.2015 23:20 10,6 C 71 % 1024,1 hPa 0,0 l/m 0,0 km/h (0 Bft) O-NO 61 0 min 0,000 mm 0,0 UV-I 0 W/m 5,6 C 10,6 C 0,0 km/h (0 Bft) 0,00 %
06.09.2015 23:25 10,6 C 71 % 1024,1 hPa 0,0 l/m 0,7 km/h (0 Bft) N-NO 30 0 min 0,000 mm 0,0 UV-I 0 W/m 5,6 C 10,6 C 4,0 km/h (1 Bft) 0,00 %
06.09.2015 23:30 10,6 C 72 % 1024,2 hPa 0,0 l/m 1,4 km/h (1 Bft) N-NW 337 0 min 0,000 mm 0,0 UV-I 0 W/m 5,8 C 10,6 C 4,0 km/h (1 Bft) 0,00 %
06.09.2015 23:35 10,6 C 72 % 1024,1 hPa 0,0 l/m 1,8 km/h (1 Bft) W-SW 256 0 min 0,000 mm 0,0 UV-I 0 W/m 5,8 C 10,6 C 4,0 km/h (1 Bft) 0,00 %
06.09.2015 23:40 10,6 C 72 % 1024,2 hPa 0,0 l/m 0,4 km/h (0 Bft) NO 48 0 min 0,000 mm 0,0 UV-I 0 W/m 5,8 C 10,6 C 4,0 km/h (1 Bft) 0,00 %
06.09.2015 23:45 10,6 C 72 % 1024,0 hPa 0,0 l/m 4,0 km/h (1 Bft) NW 320 0 min 0,000 mm 0,0 UV-I 0 W/m 5,8 C 10,6 C 7,9 km/h (2 Bft) 0,00 %
06.09.2015 23:50 10,6 C 72 % 1024,0 hPa 0,0 l/m 4,7 km/h (1 Bft) SW 230 0 min 0,000 mm 0,0 UV-I 0 W/m 5,8 C 10,6 C 7,9 km/h (2 Bft) 0,00 %
06.09.2015 23:55 10,6 C 72 % 1024,1 hPa 0,0 l/m 0,0 km/h (0 Bft) O-NO 69 0 min 0,000 mm 0,0 UV-I 0 W/m 5,8 C 10,6 C 0,0 km/h (0 Bft) 0,00 %
_ Min-Zeit 08:54 16:04 00:08 - 00:08 - - - - - - 19:39 09:19 00:08 00:03
Minimum _ 8,4 C 56 % 1016,3 hPa - 0,0 km/h (0 Bft) - - - - - - 5,0 C 5,6 C 0,0 km/h (0 Bft) 0,00 %
_ Max-Zeit 16:09 09:04 23:30 04:18 15:34 - - 12:44 00:03 12:44 14:09 06:09 16:14 15:34 00:03
Maximum _ 14,5 C 96 % 1024,2 hPa 0,3 l/m 22,3 km/h
W-SW (4 Bft)
- - 5 min 0,000 mm 3,0 UV-I 961 W/m 8,7 C 14,4 C 28,1 km/h
W-SW (4 Bft)
0,00 %
Durchschnitt _ 11,1 C 77 % 1020,1 hPa #2,1 l/m 3,2 km/h (1 Bft) W-SW - #2:50 h #0,000 mm 1,2 UV-I 216 W/m 7,0 C 10,7 C 6,2 km/h (2 Bft) 0,00 %